Time,TemperatureF,DewpointF,PressureIn,WindDirection,WindDirectionDegrees,WindSpeedMPH,WindSpeedGustMPH,Humidity,HourlyPrecipIn,Conditions,Clouds,dailyrainin,SoftwareType,DateUTC
2013-08-12 00:01:00,75.5,0.0,0.00,SSE,160,0.0,2.7,0,0.00,,,0.00,WUHU216PEETBRO,2013-08-12 05:01:00,
2013-08-12 00:06:00,75.8,0.0,0.00,SSE,152,0.0,2.4,0,0.00,,,0.00,WUHU216PEETBRO,2013-08-12 05:06:00,
2013-08-12 00:11:00,76.1,0.0,0.00,SSW,196,0.0,3.0,0,0.00,,,0.00,WUHU216PEETBRO,2013-08-12 05:11:00,
2013-08-12 00:16:00,75.5,0.0,0.00,SSW,196,0.0,3.0,0,0.00,,,0.00,WUHU216PEETBRO,2013-08-12 05:16:00,
2013-08-12 00:21:00,75.2,0.0,0.00,SSW,196,0.0,0.0,0,0.00,,,0.00,WUHU216PEETBRO,2013-08-12 05:21:00,
2013-08-12 00:26:00,74.9,0.0,0.00,SSW,196,0.0,0.0,0,0.00,,,0.00,WUHU216PEETBRO,2013-08-12 05:26:00,
2013-08-12 00:31:00,74.9,0.0,0.00,SSW,196,0.0,0.0,0,0.00,,,0.00,WUHU216PEETBRO,2013-08-12 05:31:00,
2013-08-12 00:36:00,74.6,0.0,0.00,SSW,196,0.0,0.0,0,0.00,,,0.00,WUHU216PEETBRO,2013-08-12 05:36:00,
2013-08-12 00:41:00,75.2,0.0,0.00,SSW,196,0.0,0.0,0,0.00,,,0.00,WUHU216PEETBRO,2013-08-12 05:41:00,
2013-08-12 00:46:00,74.9,0.0,0.00,SSW,196,0.0,0.0,0,0.00,,,0.00,WUHU216PEETBRO,2013-08-12 05:46:00,
2013-08-12 00:51:00,75.2,0.0,0.00,SSW,196,0.0,0.0,0,0.00,,,0.00,WUHU216PEETBRO,2013-08-12 05:51:00,
2013-08-12 00:55:00,75.2,0.0,0.00,SSW,196,0.0,0.0,0,0.00,,,0.00,WUHU216PEETBRO,2013-08-12 05:55:00,
2013-08-12 01:00:00,75.2,0.0,0.00,SSW,196,0.0,0.0,0,0.00,,,0.00,WUHU216PEETBRO,2013-08-12 06:00:00,
2013-08-12 01:05:00,74.9,0.0,0.00,SSW,196,0.0,0.0,0,0.00,,,0.00,WUHU216PEETBRO,2013-08-12 06:05:00,
2013-08-12 01:10:00,74.2,0.0,0.00,SSW,196,0.0,0.0,0,0.00,,,0.00,WUHU216PEETBRO,2013-08-12 06:10:00,
2013-08-12 01:15:00,73.6,0.0,0.00,SSW,196,0.0,0.0,0,0.00,,,0.00,WUHU216PEETBRO,2013-08-12 06:15:00,
2013-08-12 01:20:00,75.2,0.0,0.00,SSW,196,0.0,0.0,0,0.00,,,0.00,WUHU216PEETBRO,2013-08-12 06:20:00,
2013-08-12 01:25:00,74.9,0.0,0.00,SSW,196,0.0,0.0,0,0.00,,,0.00,WUHU216PEETBRO,2013-08-12 06:25:00,
2013-08-12 01:30:00,74.9,0.0,0.00,SSW,196,0.0,0.0,0,0.00,,,0.00,WUHU216PEETBRO,2013-08-12 06:30:00,
2013-08-12 01:35:00,74.6,0.0,0.00,SSW,196,0.0,0.0,0,0.00,,,0.00,WUHU216PEETBRO,2013-08-12 06:35:00,
2013-08-12 01:41:00,74.9,0.0,0.00,SSW,196,0.0,0.0,0,0.00,,,0.00,WUHU216PEETBRO,2013-08-12 06:41:00,
2013-08-12 01:45:00,74.6,0.0,0.00,SSW,196,0.0,0.0,0,0.00,,,0.00,WUHU216PEETBRO,2013-08-12 06:45:00,
2013-08-12 01:51:00,74.6,0.0,0.00,South,175,0.0,3.4,0,0.00,,,0.00,WUHU216PEETBRO,2013-08-12 06:51:00,
2013-08-12 01:55:00,75.2,0.0,0.00,South,175,0.0,3.4,0,0.00,,,0.00,WUHU216PEETBRO,2013-08-12 06:55:00,
2013-08-12 02:01:00,74.6,0.0,0.00,South,175,0.0,0.0,0,0.00,,,0.00,WUHU216PEETBRO,2013-08-12 07:01:00,
2013-08-12 02:06:00,73.9,0.0,0.00,South,175,0.0,0.0,0,0.00,,,0.00,WUHU216PEETBRO,2013-08-12 07:06:00,
2013-08-12 02:11:00,74.9,0.0,0.00,South,175,0.0,0.0,0,0.00,,,0.00,WUHU216PEETBRO,2013-08-12 07:11:00,
2013-08-12 02:16:00,74.2,0.0,0.00,South,175,0.0,0.0,0,0.00,,,0.00,WUHU216PEETBRO,2013-08-12 07:16:00,
2013-08-12 02:21:00,74.2,0.0,0.00,South,175,0.0,0.0,0,0.00,,,0.00,WUHU216PEETBRO,2013-08-12 07:21:00,
2013-08-12 02:26:00,74.6,0.0,0.00,South,175,0.0,0.0,0,0.00,,,0.00,WUHU216PEETBRO,2013-08-12 07:26:00,
2013-08-12 02:31:00,74.9,0.0,0.00,South,175,0.0,0.0,0,0.00,,,0.00,WUHU216PEETBRO,2013-08-12 07:31:00,
2013-08-12 02:36:00,74.2,0.0,0.00,South,175,0.0,0.0,0,0.00,,,0.00,WUHU216PEETBRO,2013-08-12 07:36:00,
2013-08-12 02:41:00,74.2,0.0,0.00,South,175,0.0,0.0,0,0.00,,,0.00,WUHU216PEETBRO,2013-08-12 07:41:00,
2013-08-12 02:45:00,74.2,0.0,0.00,South,175,0.0,0.0,0,0.00,,,0.00,WUHU216PEETBRO,2013-08-12 07:45:00,
2013-08-12 02:50:00,73.3,0.0,0.00,South,175,0.0,0.0,0,0.00,,,0.00,WUHU216PEETBRO,2013-08-12 07:50:00,
2013-08-12 02:55:00,73.3,0.0,0.00,South,175,0.0,0.0,0,0.00,,,0.00,WUHU216PEETBRO,2013-08-12 07:55:00,
2013-08-12 03:00:00,73.3,0.0,0.00,South,175,0.0,0.0,0,0.00,,,0.00,WUHU216PEETBRO,2013-08-12 08:00:00,
2013-08-12 03:05:00,73.3,0.0,0.00,South,175,0.0,0.0,0,0.00,,,0.00,WUHU216PEETBRO,2013-08-12 08:05:00,
2013-08-12 03:11:00,73.0,0.0,0.00,South,175,0.0,0.0,0,0.00,,,0.00,WUHU216PEETBRO,2013-08-12 08:11:00,
2013-08-12 03:16:00,72.3,0.0,0.00,South,175,0.0,0.0,0,0.00,,,0.00,WUHU216PEETBRO,2013-08-12 08:16:00,
2013-08-12 03:21:00,72.6,0.0,0.00,South,175,0.0,0.0,0,0.00,,,0.00,WUHU216PEETBRO,2013-08-12 08:21:00,
2013-08-12 03:26:00,73.0,0.0,0.00,South,175,0.0,0.0,0,0.00,,,0.00,WUHU216PEETBRO,2013-08-12 08:26:00,
2013-08-12 03:31:00,73.0,0.0,0.00,South,175,0.0,0.0,0,0.00,,,0.00,WUHU216PEETBRO,2013-08-12 08:31:00,
2013-08-12 03:35:00,73.3,0.0,0.00,South,175,0.0,0.0,0,0.00,,,0.00,WUHU216PEETBRO,2013-08-12 08:35:00,
2013-08-12 03:40:00,72.6,0.0,0.00,South,175,0.0,0.0,0,0.00,,,0.00,WUHU216PEETBRO,2013-08-12 08:40:00,
2013-08-12 03:45:00,72.6,0.0,0.00,South,175,0.0,0.0,0,0.00,,,0.00,WUHU216PEETBRO,2013-08-12 08:45:00,
2013-08-12 03:50:00,72.3,0.0,0.00,South,175,0.0,0.0,0,0.00,,,0.00,WUHU216PEETBRO,2013-08-12 08:50:00,
2013-08-12 03:55:00,72.3,0.0,0.00,South,175,0.0,0.0,0,0.00,,,0.00,WUHU216PEETBRO,2013-08-12 08:55:00,
2013-08-12 04:00:00,72.6,0.0,0.00,South,175,0.0,0.0,0,0.00,,,0.00,WUHU216PEETBRO,2013-08-12 09:00:00,
2013-08-12 04:05:00,73.0,0.0,0.00,South,175,0.0,0.0,0,0.00,,,0.00,WUHU216PEETBRO,2013-08-12 09:05:00,
2013-08-12 04:10:00,73.0,0.0,0.00,South,175,0.0,0.0,0,0.00,,,0.00,WUHU216PEETBRO,2013-08-12 09:10:00,
2013-08-12 04:15:00,73.0,0.0,0.00,South,175,0.0,0.0,0,0.00,,,0.00,WUHU216PEETBRO,2013-08-12 09:15:00,
2013-08-12 04:20:00,72.3,0.0,0.00,South,175,0.0,0.0,0,0.00,,,0.00,WUHU216PEETBRO,2013-08-12 09:20:00,
2013-08-12 04:25:00,72.3,0.0,0.00,South,175,0.0,0.0,0,0.00,,,0.00,WUHU216PEETBRO,2013-08-12 09:25:00,
2013-08-12 04:30:00,72.6,0.0,0.00,South,175,0.0,0.0,0,0.00,,,0.00,WUHU216PEETBRO,2013-08-12 09:30:00,
2013-08-12 04:35:00,71.7,0.0,0.00,South,175,0.0,0.0,0,0.00,,,0.00,WUHU216PEETBRO,2013-08-12 09:35:00,
2013-08-12 04:40:00,72.3,0.0,0.00,South,175,0.0,0.0,0,0.00,,,0.00,WUHU216PEETBRO,2013-08-12 09:40:00,
2013-08-12 04:45:00,72.3,0.0,0.00,South,175,0.0,0.0,0,0.00,,,0.00,WUHU216PEETBRO,2013-08-12 09:45:00,
2013-08-12 04:50:00,72.3,0.0,0.00,South,175,0.0,0.0,0,0.00,,,0.00,WUHU216PEETBRO,2013-08-12 09:50:00,
2013-08-12 04:55:00,72.3,0.0,0.00,South,175,0.0,0.0,0,0.00,,,0.00,WUHU216PEETBRO,2013-08-12 09:55:00,
2013-08-12 05:00:00,71.7,0.0,0.00,South,175,0.0,0.0,0,0.00,,,0.00,WUHU216PEETBRO,2013-08-12 10:00:00,
2013-08-12 05:05:00,71.4,0.0,0.00,South,175,0.0,0.0,0,0.00,,,0.00,WUHU216PEETBRO,2013-08-12 10:05:00,
2013-08-12 05:10:00,71.7,0.0,0.00,South,175,0.0,0.0,0,0.00,,,0.00,WUHU216PEETBRO,2013-08-12 10:10:00,
2013-08-12 05:15:00,72.3,0.0,0.00,South,175,0.0,0.0,0,0.00,,,0.00,WUHU216PEETBRO,2013-08-12 10:15:00,
2013-08-12 05:20:00,72.6,0.0,0.00,South,175,0.0,0.0,0,0.00,,,0.00,WUHU216PEETBRO,2013-08-12 10:20:00,
2013-08-12 05:25:00,71.4,0.0,0.00,South,175,0.0,0.0,0,0.00,,,0.00,WUHU216PEETBRO,2013-08-12 10:25:00,
2013-08-12 05:30:00,72.0,0.0,0.00,South,175,0.0,0.0,0,0.00,,,0.00,WUHU216PEETBRO,2013-08-12 10:30:00,
2013-08-12 05:35:00,71.4,0.0,0.00,South,175,0.0,0.0,0,0.00,,,0.00,WUHU216PEETBRO,2013-08-12 10:35:00,
2013-08-12 05:40:00,71.4,0.0,0.00,South,175,0.0,0.0,0,0.00,,,0.00,WUHU216PEETBRO,2013-08-12 10:40:00,
2013-08-12 05:45:00,72.6,0.0,0.00,South,175,0.0,0.0,0,0.00,,,0.00,WUHU216PEETBRO,2013-08-12 10:45:00,
2013-08-12 05:50:00,72.3,0.0,0.00,South,175,0.0,0.0,0,0.00,,,0.00,WUHU216PEETBRO,2013-08-12 10:50:00,
2013-08-12 05:55:00,72.3,0.0,0.00,South,175,0.0,0.0,0,0.00,,,0.00,WUHU216PEETBRO,2013-08-12 10:55:00,
2013-08-12 06:00:00,72.3,0.0,0.00,South,175,0.0,0.0,0,0.00,,,0.00,WUHU216PEETBRO,2013-08-12 11:00:00,
2013-08-12 06:05:00,72.3,0.0,0.00,South,175,0.0,0.0,0,0.00,,,0.00,WUHU216PEETBRO,2013-08-12 11:05:00,
2013-08-12 06:10:00,71.7,0.0,0.00,South,175,0.0,0.0,0,0.00,,,0.00,WUHU216PEETBRO,2013-08-12 11:10:00,
2013-08-12 06:15:00,72.0,0.0,0.00,South,175,0.0,0.0,0,0.00,,,0.00,WUHU216PEETBRO,2013-08-12 11:15:00,
2013-08-12 06:20:00,72.3,0.0,0.00,South,175,0.0,0.0,0,0.00,,,0.00,WUHU216PEETBRO,2013-08-12 11:20:00,
2013-08-12 06:25:00,72.0,0.0,0.00,South,175,0.0,0.0,0,0.00,,,0.00,WUHU216PEETBRO,2013-08-12 11:25:00,
2013-08-12 06:30:00,72.6,0.0,0.00,South,175,0.0,0.0,0,0.00,,,0.00,WUHU216PEETBRO,2013-08-12 11:30:00,
2013-08-12 06:35:00,72.3,0.0,0.00,South,175,0.0,0.0,0,0.00,,,0.00,WUHU216PEETBRO,2013-08-12 11:35:00,
2013-08-12 06:40:00,73.3,0.0,0.00,South,175,0.0,0.0,0,0.00,,,0.00,WUHU216PEETBRO,2013-08-12 11:40:00,
2013-08-12 06:45:00,74.2,0.0,0.00,South,175,0.0,0.0,0,0.00,,,0.00,WUHU216PEETBRO,2013-08-12 11:45:00,
2013-08-12 06:50:00,73.3,0.0,0.00,South,175,0.0,0.0,0,0.00,,,0.00,WUHU216PEETBRO,2013-08-12 11:50:00,
2013-08-12 06:55:00,74.2,0.0,0.00,South,175,0.0,0.0,0,0.00,,,0.00,WUHU216PEETBRO,2013-08-12 11:55:00,
2013-08-12 07:00:00,74.9,0.0,0.00,South,175,0.0,0.0,0,0.00,,,0.00,WUHU216PEETBRO,2013-08-12 12:00:00,
2013-08-12 07:05:00,74.7,0.0,0.00,South,175,0.0,0.0,0,0.00,,,0.00,WUHU216PEETBRO,2013-08-12 12:05:00,
2013-08-12 07:10:00,75.9,0.0,0.00,South,175,0.0,0.0,0,0.00,,,0.00,WUHU216PEETBRO,2013-08-12 12:10:00,
2013-08-12 07:15:00,76.2,0.0,0.00,South,175,0.0,0.0,0,0.00,,,0.00,WUHU216PEETBRO,2013-08-12 12:15:00,
2013-08-12 07:20:00,76.8,0.0,0.00,South,175,0.0,0.0,0,0.00,,,0.00,WUHU216PEETBRO,2013-08-12 12:20:00,
2013-08-12 07:25:00,77.4,0.0,0.00,South,175,0.0,0.0,0,0.00,,,0.00,WUHU216PEETBRO,2013-08-12 12:25:00,
2013-08-12 07:30:00,77.4,0.0,0.00,South,175,0.0,0.0,0,0.00,,,0.00,WUHU216PEETBRO,2013-08-12 12:30:00,
2013-08-12 07:35:00,78.1,0.0,0.00,South,175,0.0,0.0,0,0.00,,,0.00,WUHU216PEETBRO,2013-08-12 12:35:00,
2013-08-12 07:40:00,76.8,0.0,0.00,South,175,0.0,0.0,0,0.00,,,0.00,WUHU216PEETBRO,2013-08-12 12:40:00,
2013-08-12 07:45:00,78.1,0.0,0.00,South,175,0.0,0.0,0,0.00,,,0.00,WUHU216PEETBRO,2013-08-12 12:45:00,
2013-08-12 07:50:00,78.9,0.0,0.00,South,175,0.0,0.0,0,0.00,,,0.00,WUHU216PEETBRO,2013-08-12 12:50:00,
2013-08-12 07:55:00,80.2,0.0,0.00,South,175,0.0,0.0,0,0.00,,,0.00,WUHU216PEETBRO,2013-08-12 12:55:00,
2013-08-12 08:00:00,80.4,0.0,0.00,South,175,0.0,0.0,0,0.00,,,0.00,WUHU216PEETBRO,2013-08-12 13:00:00,
2013-08-12 08:05:00,80.4,0.0,0.00,South,175,0.0,0.0,0,0.00,,,0.00,WUHU216PEETBRO,2013-08-12 13:05:00,
2013-08-12 08:10:00,82.1,0.0,0.00,South,175,0.0,0.0,0,0.00,,,0.00,WUHU216PEETBRO,2013-08-12 13:10:00,
2013-08-12 08:15:00,83.9,0.0,0.00,South,175,0.0,0.0,0,0.00,,,0.00,WUHU216PEETBRO,2013-08-12 13:15:00,
2013-08-12 08:20:00,89.2,0.0,0.00,South,175,0.0,0.0,0,0.00,,,0.00,WUHU216PEETBRO,2013-08-12 13:20:00,
2013-08-12 08:25:00,88.8,0.0,0.00,East,94,0.0,1.5,0,0.00,,,0.00,WUHU216PEETBRO,2013-08-12 13:25:00,
2013-08-12 08:30:00,89.2,0.0,0.00,East,98,0.7,3.5,0,0.00,,,0.00,WUHU216PEETBRO,2013-08-12 13:30:00,
2013-08-12 08:35:00,88.8,0.0,0.00,ENE,62,0.4,3.5,0,0.00,,,0.00,WUHU216PEETBRO,2013-08-12 13:35:00,
2013-08-12 08:40:00,94.7,0.0,0.00,ENE,62,0.0,1.7,0,0.00,,,0.00,WUHU216PEETBRO,2013-08-12 13:40:00,
2013-08-12 08:45:00,90.4,0.0,0.00,WSW,255,0.6,2.4,0,0.00,,,0.00,WUHU216PEETBRO,2013-08-12 13:45:00,
2013-08-12 08:50:00,92.1,0.0,0.00,SW,218,0.0,2.4,0,0.00,,,0.00,WUHU216PEETBRO,2013-08-12 13:50:00,
2013-08-12 08:55:00,92.2,0.0,0.00,ESE,115,2.2,2.9,0,0.00,,,0.00,WUHU216PEETBRO,2013-08-12 13:55:00,
2013-08-12 09:00:00,91.5,0.0,0.00,SSE,153,0.0,2.9,0,0.00,,,0.00,WUHU216PEETBRO,2013-08-12 14:00:00,
2013-08-12 09:05:00,91.7,0.0,0.00,South,190,1.7,4.2,0,0.00,,,0.00,WUHU216PEETBRO,2013-08-12 14:05:00,
2013-08-12 09:10:00,91.2,0.0,0.00,SW,230,0.0,4.2,0,0.00,,,0.00,WUHU216PEETBRO,2013-08-12 14:10:00,
2013-08-12 09:15:00,91.2,0.0,0.00,SSW,208,0.4,4.5,0,0.00,,,0.00,WUHU216PEETBRO,2013-08-12 14:15:00,
2013-08-12 09:20:00,91.2,0.0,0.00,South,173,0.3,4.5,0,0.00,,,0.00,WUHU216PEETBRO,2013-08-12 14:20:00,
2013-08-12 09:25:00,91.7,0.0,0.00,West,279,0.9,3.0,0,0.00,,,0.00,WUHU216PEETBRO,2013-08-12 14:25:00,
2013-08-12 09:30:00,91.7,0.0,0.00,WSW,254,3.4,3.9,0,0.00,,,0.00,WUHU216PEETBRO,2013-08-12 14:30:00,
2013-08-12 09:35:00,88.8,0.0,0.00,SW,232,1.6,4.4,0,0.00,,,0.00,WUHU216PEETBRO,2013-08-12 14:35:00,
2013-08-12 09:40:00,90.8,0.0,0.00,SSW,203,2.4,5.0,0,0.00,,,0.00,WUHU216PEETBRO,2013-08-12 14:40:00,
2013-08-12 09:45:00,92.6,0.0,0.00,SW,224,2.8,6.5,0,0.00,,,0.00,WUHU216PEETBRO,2013-08-12 14:45:00,
2013-08-12 09:50:00,93.4,0.0,0.00,West,259,1.6,7.0,0,0.00,,,0.00,WUHU216PEETBRO,2013-08-12 14:50:00,
2013-08-12 09:55:00,96.0,0.0,0.00,NNW,345,2.6,7.0,0,0.00,,,0.00,WUHU216PEETBRO,2013-08-12 14:55:00,
2013-08-12 10:00:00,92.1,0.0,0.00,NW,307,2.2,6.2,0,0.00,,,0.00,WUHU216PEETBRO,2013-08-12 15:00:00,
2013-08-12 10:05:00,90.0,0.0,0.00,West,266,4.0,6.6,0,0.00,,,0.00,WUHU216PEETBRO,2013-08-12 15:05:00,
2013-08-12 10:10:00,94.7,0.0,0.00,SW,231,2.4,6.6,0,0.00,,,0.00,WUHU216PEETBRO,2013-08-12 15:10:00,
2013-08-12 10:15:00,94.7,0.0,0.00,WSW,247,1.9,6.4,0,0.00,,,0.00,WUHU216PEETBRO,2013-08-12 15:15:00,
2013-08-12 10:20:00,94.2,0.0,0.00,WNW,287,4.1,7.5,0,0.00,,,0.00,WUHU216PEETBRO,2013-08-12 15:20:00,
2013-08-12 10:25:00,98.2,0.0,0.00,NW,319,3.7,9.1,0,0.00,,,0.00,WUHU216PEETBRO,2013-08-12 15:25:00,
2013-08-12 10:30:00,97.8,0.0,0.00,WSW,239,2.7,9.1,0,0.00,,,0.00,WUHU216PEETBRO,2013-08-12 15:30:00,
2013-08-12 10:35:00,96.0,0.0,0.00,WSW,248,5.3,7.8,0,0.00,,,0.00,WUHU216PEETBRO,2013-08-12 15:35:00,
2013-08-12 10:40:00,97.8,0.0,0.00,SW,223,4.2,7.8,0,0.00,,,0.00,WUHU216PEETBRO,2013-08-12 15:40:00,
2013-08-12 10:45:00,99.8,0.0,0.00,SW,225,2.9,8.6,0,0.00,,,0.00,WUHU216PEETBRO,2013-08-12 15:45:00,
2013-08-12 10:50:00,98.4,0.0,0.00,WSW,251,5.5,9.4,0,0.00,,,0.00,WUHU216PEETBRO,2013-08-12 15:50:00,
2013-08-12 10:55:00,98.4,0.0,0.00,SW,225,3.5,9.4,0,0.00,,,0.00,WUHU216PEETBRO,2013-08-12 15:55:00,
2013-08-12 11:00:00,100.2,0.0,0.00,ESE,107,1.5,8.9,0,0.00,,,0.00,WUHU216PEETBRO,2013-08-12 16:00:00,
2013-08-12 11:05:00,99.8,0.0,0.00,WSW,248,4.4,7.3,0,0.00,,,0.00,WUHU216PEETBRO,2013-08-12 16:05:00,
2013-08-12 11:10:00,98.9,0.0,0.00,WSW,254,4.0,7.3,0,0.00,,,0.00,WUHU216PEETBRO,2013-08-12 16:10:00,
2013-08-12 11:15:00,98.9,0.0,0.00,SSW,204,2.8,7.9,0,0.00,,,0.00,WUHU216PEETBRO,2013-08-12 16:15:00,
2013-08-12 11:20:00,98.8,0.0,0.00,WSW,258,3.7,8.8,0,0.00,,,0.00,WUHU216PEETBRO,2013-08-12 16:20:00,
2013-08-12 11:25:00,100.2,0.0,0.00,WSW,252,9.1,9.1,0,0.00,,,0.00,WUHU216PEETBRO,2013-08-12 16:25:00,
2013-08-12 11:30:00,96.4,0.0,0.00,SSE,148,1.3,9.3,0,0.00,,,0.00,WUHU216PEETBRO,2013-08-12 16:30:00,
2013-08-12 11:35:00,102.7,0.0,0.00,SW,215,4.0,9.3,0,0.00,,,0.00,WUHU216PEETBRO,2013-08-12 16:35:00,
2013-08-12 11:40:00,100.2,0.0,0.00,West,268,3.4,7.0,0,0.00,,,0.00,WUHU216PEETBRO,2013-08-12 16:40:00,
2013-08-12 11:45:00,95.5,0.0,0.00,West,262,4.2,11.2,0,0.00,,,0.00,WUHU216PEETBRO,2013-08-12 16:45:00,
2013-08-12 11:50:00,99.8,0.0,0.00,SE,146,0.0,11.2,0,0.00,,,0.00,WUHU216PEETBRO,2013-08-12 16:50:00,
2013-08-12 11:55:00,102.4,0.0,0.00,North,2,1.9,7.3,0,0.00,,,0.00,WUHU216PEETBRO,2013-08-12 16:55:00,
2013-08-12 12:00:00,99.1,0.0,0.00,NW,304,1.2,7.3,0,0.00,,,0.00,WUHU216PEETBRO,2013-08-12 17:00:00,
2013-08-12 12:05:00,102.7,0.0,0.00,North,5,0.0,10.6,0,0.00,,,0.00,WUHU216PEETBRO,2013-08-12 17:05:00,
2013-08-12 12:10:00,103.3,0.0,0.00,WSW,252,2.3,10.6,0,0.00,,,0.00,WUHU216PEETBRO,2013-08-12 17:10:00,
2013-08-12 12:15:00,99.0,0.0,0.00,SW,220,6.2,11.5,0,0.00,,,0.00,WUHU216PEETBRO,2013-08-12 17:15:00,
2013-08-12 12:20:00,97.3,0.0,0.00,NW,317,8.2,11.5,0,0.00,,,0.00,WUHU216PEETBRO,2013-08-12 17:20:00,
2013-08-12 12:25:00,105.1,0.0,0.00,NW,316,2.2,9.1,0,0.00,,,0.00,WUHU216PEETBRO,2013-08-12 17:25:00,
2013-08-12 12:30:00,98.9,0.0,0.00,West,275,3.9,9.1,0,0.00,,,0.00,WUHU216PEETBRO,2013-08-12 17:30:00,
2013-08-12 12:35:00,93.4,0.0,0.00,NW,307,8.9,15.1,0,0.00,,,0.00,WUHU216PEETBRO,2013-08-12 17:35:00,
2013-08-12 12:40:00,93.4,0.0,0.00,WSW,256,1.6,15.1,0,0.00,,,0.00,WUHU216PEETBRO,2013-08-12 17:40:00,
2013-08-12 12:45:00,89.7,0.0,0.00,NW,326,6.1,14.0,0,0.00,,,0.00,WUHU216PEETBRO,2013-08-12 17:45:00,
2013-08-12 12:50:00,86.7,0.0,0.00,NW,323,8.3,14.0,0,0.00,,,0.00,WUHU216PEETBRO,2013-08-12 17:50:00,
2013-08-12 12:55:00,79.9,0.0,0.00,West,275,3.6,12.6,0,0.00,,,0.00,WUHU216PEETBRO,2013-08-12 17:55:00,
2013-08-12 13:00:00,75.9,0.0,0.00,WSW,248,7.4,10.7,0,0.14,,,0.14,WUHU216PEETBRO,2013-08-12 18:00:00,
2013-08-12 13:05:00,73.9,0.0,0.00,SSW,211,15.3,28.0,0,0.32,,,0.32,WUHU216PEETBRO,2013-08-12 18:05:00,
2013-08-12 13:10:00,73.0,0.0,0.00,South,172,8.0,28.0,0,0.50,,,0.50,WUHU216PEETBRO,2013-08-12 18:10:00,
2013-08-12 13:15:00,72.0,0.0,0.00,ESE,107,4.5,21.5,0,0.63,,,0.63,WUHU216PEETBRO,2013-08-12 18:15:00,
2013-08-12 13:20:00,72.3,0.0,0.00,NE,56,1.6,8.0,0,0.71,,,0.71,WUHU216PEETBRO,2013-08-12 18:20:00,
2013-08-12 13:25:00,72.3,0.0,0.00,East,95,1.5,9.6,0,0.77,,,0.77,WUHU216PEETBRO,2013-08-12 18:25:00,
2013-08-12 13:30:00,73.3,0.0,0.00,SSW,200,0.0,9.6,0,0.79,,,0.79,WUHU216PEETBRO,2013-08-12 18:30:00,
2013-08-12 13:35:00,73.9,0.0,0.00,WNW,290,1.6,4.5,0,0.80,,,0.80,WUHU216PEETBRO,2013-08-12 18:35:00,
2013-08-12 13:40:00,73.0,0.0,0.00,WSW,252,0.0,3.6,0,0.80,,,0.80,WUHU216PEETBRO,2013-08-12 18:40:00,
2013-08-12 13:45:00,74.2,0.0,0.00,WSW,252,0.0,1.9,0,0.80,,,0.80,WUHU216PEETBRO,2013-08-12 18:45:00,
2013-08-12 13:50:00,74.2,0.0,0.00,ESE,117,0.0,1.0,0,0.80,,,0.80,WUHU216PEETBRO,2013-08-12 18:50:00,
2013-08-12 13:55:00,74.2,0.0,0.00,SW,220,0.0,1.7,0,0.80,,,0.80,WUHU216PEETBRO,2013-08-12 18:55:00,
2013-08-12 14:00:00,74.6,0.0,0.00,SW,220,0.0,1.7,0,0.66,,,0.80,WUHU216PEETBRO,2013-08-12 19:00:00,
2013-08-12 14:05:00,74.2,0.0,0.00,SW,220,0.0,0.0,0,0.48,,,0.80,WUHU216PEETBRO,2013-08-12 19:05:00,
2013-08-12 14:10:00,74.6,0.0,0.00,SW,220,0.0,0.0,0,0.30,,,0.80,WUHU216PEETBRO,2013-08-12 19:10:00,
2013-08-12 14:15:00,74.2,0.0,0.00,SW,220,0.0,0.0,0,0.18,,,0.80,WUHU216PEETBRO,2013-08-12 19:15:00,
2013-08-12 14:20:00,73.6,0.0,0.00,SE,129,0.0,4.4,0,0.10,,,0.80,WUHU216PEETBRO,2013-08-12 19:20:00,
2013-08-12 14:25:00,73.9,0.0,0.00,SE,129,0.0,4.4,0,0.04,,,0.80,WUHU216PEETBRO,2013-08-12 19:25:00,
2013-08-12 14:30:00,74.2,0.0,0.00,SE,129,0.0,0.0,0,0.01,,,0.80,WUHU216PEETBRO,2013-08-12 19:30:00,
2013-08-12 14:35:00,74.2,0.0,0.00,SE,129,0.0,0.0,0,0.00,,,0.80,WUHU216PEETBRO,2013-08-12 19:35:00,
2013-08-12 14:40:00,74.9,0.0,0.00,SE,129,0.0,0.0,0,0.00,,,0.80,WUHU216PEETBRO,2013-08-12 19:40:00,
2013-08-12 14:45:00,73.6,0.0,0.00,SE,129,0.0,0.0,0,0.00,,,0.80,WUHU216PEETBRO,2013-08-12 19:45:00,
2013-08-12 14:50:00,74.6,0.0,0.00,SE,129,0.0,0.0,0,0.00,,,0.80,WUHU216PEETBRO,2013-08-12 19:50:00,
2013-08-12 14:55:00,75.2,0.0,0.00,SE,129,0.0,0.0,0,0.00,,,0.80,WUHU216PEETBRO,2013-08-12 19:55:00,
2013-08-12 15:00:00,75.2,0.0,0.00,SE,129,0.0,0.0,0,0.00,,,0.80,WUHU216PEETBRO,2013-08-12 20:00:00,
2013-08-12 15:05:00,75.9,0.0,0.00,SE,129,0.0,0.0,0,0.00,,,0.80,WUHU216PEETBRO,2013-08-12 20:05:00,
2013-08-12 15:10:00,76.0,0.0,0.00,SE,129,0.0,0.0,0,0.00,,,0.80,WUHU216PEETBRO,2013-08-12 20:10:00,
2013-08-12 15:15:00,76.8,0.0,0.00,ENE,59,0.0,3.6,0,0.00,,,0.80,WUHU216PEETBRO,2013-08-12 20:15:00,
2013-08-12 15:20:00,77.4,0.0,0.00,ESE,108,0.0,3.6,0,0.00,,,0.80,WUHU216PEETBRO,2013-08-12 20:20:00,
2013-08-12 15:25:00,78.1,0.0,0.00,ESE,108,0.0,1.2,0,0.00,,,0.80,WUHU216PEETBRO,2013-08-12 20:25:00,
2013-08-12 15:30:00,79.9,0.0,0.00,ESE,108,0.0,0.0,0,0.00,,,0.80,WUHU216PEETBRO,2013-08-12 20:30:00,
2013-08-12 15:35:00,81.1,0.0,0.00,WNW,302,0.0,3.3,0,0.00,,,0.80,WUHU216PEETBRO,2013-08-12 20:35:00,
2013-08-12 15:40:00,82.4,0.0,0.00,WSW,247,1.9,3.6,0,0.00,,,0.80,WUHU216PEETBRO,2013-08-12 20:40:00,
2013-08-12 15:45:00,84.3,0.0,0.00,WNW,290,0.0,3.6,0,0.00,,,0.80,WUHU216PEETBRO,2013-08-12 20:45:00,
2013-08-12 15:50:00,83.9,0.0,0.00,SW,235,1.7,2.9,0,0.00,,,0.80,WUHU216PEETBRO,2013-08-12 20:50:00,
2013-08-12 15:55:00,85.0,0.0,0.00,NW,316,0.0,2.9,0,0.00,,,0.80,WUHU216PEETBRO,2013-08-12 20:55:00,
2013-08-12 16:00:00,86.7,0.0,0.00,WSW,247,0.4,3.2,0,0.00,,,0.80,WUHU216PEETBRO,2013-08-12 21:00:00,
2013-08-12 16:05:00,88.5,0.0,0.00,WSW,255,1.0,4.0,0,0.00,,,0.80,WUHU216PEETBRO,2013-08-12 21:05:00,
2013-08-12 16:10:00,89.7,0.0,0.00,West,271,2.3,6.4,0,0.00,,,0.80,WUHU216PEETBRO,2013-08-12 21:10:00,
2013-08-12 16:15:00,92.1,0.0,0.00,WSW,252,2.5,6.4,0,0.00,,,0.80,WUHU216PEETBRO,2013-08-12 21:15:00,
2013-08-12 16:20:00,94.2,0.0,0.00,South,169,1.8,6.8,0,0.00,,,0.80,WUHU216PEETBRO,2013-08-12 21:20:00,
2013-08-12 16:25:00,93.4,0.0,0.00,SW,231,4.2,7.0,0,0.00,,,0.80,WUHU216PEETBRO,2013-08-12 21:25:00,
2013-08-12 16:30:00,92.1,0.0,0.00,SSW,206,5.5,8.8,0,0.00,,,0.80,WUHU216PEETBRO,2013-08-12 21:30:00,
2013-08-12 16:35:00,92.4,0.0,0.00,WSW,241,5.3,10.5,0,0.00,,,0.80,WUHU216PEETBRO,2013-08-12 21:35:00,
2013-08-12 16:40:00,93.4,0.0,0.00,SSE,159,2.9,10.5,0,0.00,,,0.80,WUHU216PEETBRO,2013-08-12 21:40:00,
2013-08-12 16:45:00,94.7,0.0,0.00,SW,235,4.1,8.9,0,0.00,,,0.80,WUHU216PEETBRO,2013-08-12 21:45:00,
2013-08-12 16:50:00,94.7,0.0,0.00,SE,141,2.4,7.4,0,0.00,,,0.80,WUHU216PEETBRO,2013-08-12 21:50:00,
2013-08-12 16:55:00,91.2,0.0,0.00,SW,231,5.2,9.1,0,0.00,,,0.80,WUHU216PEETBRO,2013-08-12 21:55:00,
2013-08-12 17:00:00,92.1,0.0,0.00,WSW,248,7.3,9.2,0,0.00,,,0.80,WUHU216PEETBRO,2013-08-12 22:00:00,
2013-08-12 17:05:00,93.4,0.0,0.00,SW,228,3.7,9.2,0,0.00,,,0.80,WUHU216PEETBRO,2013-08-12 22:05:00,
2013-08-12 17:10:00,94.7,0.0,0.00,WSW,255,3.4,8.0,0,0.00,,,0.80,WUHU216PEETBRO,2013-08-12 22:10:00,
2013-08-12 17:15:00,93.0,0.0,0.00,West,278,3.2,8.3,0,0.00,,,0.80,WUHU216PEETBRO,2013-08-12 22:15:00,
2013-08-12 17:20:00,89.7,0.0,0.00,WNW,299,2.1,8.7,0,0.00,,,0.80,WUHU216PEETBRO,2013-08-12 22:20:00,
2013-08-12 17:25:00,90.4,0.0,0.00,South,169,3.6,8.7,0,0.00,,,0.80,WUHU216PEETBRO,2013-08-12 22:25:00,
2013-08-12 17:30:00,90.0,0.0,0.00,SSW,208,5.8,9.9,0,0.00,,,0.80,WUHU216PEETBRO,2013-08-12 22:30:00,
2013-08-12 17:35:00,89.7,0.0,0.00,SW,225,9.1,10.3,0,0.00,,,0.80,WUHU216PEETBRO,2013-08-12 22:35:00,
2013-08-12 17:40:00,88.8,0.0,0.00,WSW,238,4.8,12.1,0,0.00,,,0.80,WUHU216PEETBRO,2013-08-12 22:40:00,
2013-08-12 17:45:00,87.7,0.0,0.00,West,259,6.8,12.1,0,0.00,,,0.80,WUHU216PEETBRO,2013-08-12 22:45:00,
2013-08-12 17:50:00,88.5,0.0,0.00,SSW,193,5.0,11.6,0,0.00,,,0.80,WUHU216PEETBRO,2013-08-12 22:50:00,
2013-08-12 17:55:00,88.1,0.0,0.00,WNW,292,4.1,8.4,0,0.00,,,0.80,WUHU216PEETBRO,2013-08-12 22:55:00,
2013-08-12 18:00:00,88.5,0.0,0.00,WNW,296,2.8,9.5,0,0.00,,,0.80,WUHU216PEETBRO,2013-08-12 23:00:00,
2013-08-12 18:05:00,88.5,0.0,0.00,West,266,2.2,9.5,0,0.00,,,0.80,WUHU216PEETBRO,2013-08-12 23:05:00,
2013-08-12 18:10:00,88.8,0.0,0.00,SW,232,6.8,7.6,0,0.00,,,0.80,WUHU216PEETBRO,2013-08-12 23:10:00,
2013-08-12 18:15:00,88.1,0.0,0.00,WSW,249,5.2,7.2,0,0.00,,,0.80,WUHU216PEETBRO,2013-08-12 23:15:00,
2013-08-12 18:20:00,88.1,0.0,0.00,West,272,3.4,7.3,0,0.00,,,0.80,WUHU216PEETBRO,2013-08-12 23:20:00,
2013-08-12 18:25:00,89.2,0.0,0.00,WSW,244,4.5,7.3,0,0.00,,,0.80,WUHU216PEETBRO,2013-08-12 23:25:00,
2013-08-12 18:29:00,87.3,0.0,0.00,WSW,248,4.2,7.3,0,0.00,,,0.80,WUHU216PEETBRO,2013-08-12 23:29:00,
2013-08-12 18:34:00,88.5,0.0,0.00,WSW,249,2.4,7.0,0,0.00,,,0.80,WUHU216PEETBRO,2013-08-12 23:34:00,
2013-08-12 18:39:00,87.7,0.0,0.00,West,276,2.7,8.5,0,0.00,,,0.80,WUHU216PEETBRO,2013-08-12 23:39:00,
2013-08-12 18:44:00,87.7,0.0,0.00,WSW,238,2.1,8.5,0,0.00,,,0.80,WUHU216PEETBRO,2013-08-12 23:44:00,
2013-08-12 18:49:00,87.7,0.0,0.00,WNW,289,2.1,6.9,0,0.00,,,0.80,WUHU216PEETBRO,2013-08-12 23:49:00,
2013-08-12 18:54:00,87.7,0.0,0.00,SW,230,4.4,6.9,0,0.00,,,0.80,WUHU216PEETBRO,2013-08-12 23:54:00,
2013-08-12 18:59:00,87.7,0.0,0.00,SE,132,1.9,5.9,0,0.00,,,0.80,WUHU216PEETBRO,2013-08-12 23:59:00,
2013-08-12 19:04:00,88.1,0.0,0.00,SSW,203,4.8,5.4,0,0.00,,,0.80,WUHU216PEETBRO,2013-08-13 00:04:00,
2013-08-12 19:09:00,87.7,0.0,0.00,SW,215,3.5,7.8,0,0.00,,,0.80,WUHU216PEETBRO,2013-08-13 00:09:00,
2013-08-12 19:14:00,88.1,0.0,0.00,West,259,1.7,7.8,0,0.00,,,0.80,WUHU216PEETBRO,2013-08-13 00:14:00,
2013-08-12 19:19:00,87.7,0.0,0.00,SSE,148,1.0,5.8,0,0.00,,,0.80,WUHU216PEETBRO,2013-08-13 00:19:00,
2013-08-12 19:24:00,86.6,0.0,0.00,SW,224,2.7,5.1,0,0.00,,,0.80,WUHU216PEETBRO,2013-08-13 00:24:00,
2013-08-12 19:29:00,86.1,0.0,0.00,SSW,213,2.2,5.1,0,0.00,,,0.80,WUHU216PEETBRO,2013-08-13 00:29:00,
2013-08-12 19:34:00,85.7,0.0,0.00,SSE,155,2.3,3.9,0,0.00,,,0.80,WUHU216PEETBRO,2013-08-13 00:34:00,
2013-08-12 19:39:00,84.3,0.0,0.00,SSE,167,1.9,3.4,0,0.00,,,0.80,WUHU216PEETBRO,2013-08-13 00:39:00,
2013-08-12 19:44:00,83.5,0.0,0.00,SW,224,2.2,3.3,0,0.00,,,0.80,WUHU216PEETBRO,2013-08-13 00:44:00,
2013-08-12 19:49:00,82.8,0.0,0.00,West,266,1.9,3.5,0,0.00,,,0.80,WUHU216PEETBRO,2013-08-13 00:49:00,
2013-08-12 19:54:00,83.5,0.0,0.00,West,269,0.0,3.5,0,0.00,,,0.80,WUHU216PEETBRO,2013-08-13 00:54:00,
2013-08-12 19:59:00,82.8,0.0,0.00,West,269,0.0,1.5,0,0.00,,,0.80,WUHU216PEETBRO,2013-08-13 00:59:00,
2013-08-12 20:04:00,82.4,0.0,0.00,West,269,0.0,0.0,0,0.00,,,0.80,WUHU216PEETBRO,2013-08-13 01:04:00,
2013-08-12 20:09:00,82.1,0.0,0.00,West,269,0.0,0.0,0,0.00,,,0.80,WUHU216PEETBRO,2013-08-13 01:09:00,
2013-08-12 20:14:00,81.5,0.0,0.00,SSW,210,2.1,2.1,0,0.00,,,0.80,WUHU216PEETBRO,2013-08-13 01:14:00,
2013-08-12 20:19:00,79.9,0.0,0.00,South,189,0.4,2.3,0,0.00,,,0.80,WUHU216PEETBRO,2013-08-13 01:19:00,
2013-08-12 20:24:00,79.9,0.0,0.00,WSW,251,1.4,2.3,0,0.00,,,0.80,WUHU216PEETBRO,2013-08-13 01:24:00,
2013-08-12 20:29:00,79.9,0.0,0.00,WSW,237,2.0,2.0,0,0.00,,,0.80,WUHU216PEETBRO,2013-08-13 01:29:00,
2013-08-12 20:34:00,80.3,0.0,0.00,SSE,165,0.0,2.1,0,0.00,,,0.80,WUHU216PEETBRO,2013-08-13 01:34:00,
2013-08-12 20:39:00,80.3,0.0,0.00,West,262,1.4,2.1,0,0.00,,,0.80,WUHU216PEETBRO,2013-08-13 01:39:00,
2013-08-12 20:44:00,80.5,0.0,0.00,West,280,1.2,1.9,0,0.00,,,0.80,WUHU216PEETBRO,2013-08-13 01:44:00,
2013-08-12 20:49:00,80.9,0.0,0.00,West,266,0.7,2.2,0,0.00,,,0.80,WUHU216PEETBRO,2013-08-13 01:49:00,
2013-08-12 20:54:00,80.4,0.0,0.00,West,275,0.4,2.4,0,0.00,,,0.80,WUHU216PEETBRO,2013-08-13 01:54:00,
2013-08-12 20:59:00,80.6,0.0,0.00,SW,234,2.5,2.6,0,0.00,,,0.80,WUHU216PEETBRO,2013-08-13 01:59:00,
2013-08-12 21:04:00,80.4,0.0,0.00,West,269,1.8,3.0,0,0.00,,,0.80,WUHU216PEETBRO,2013-08-13 02:04:00,
2013-08-12 21:09:00,80.4,0.0,0.00,West,279,0.0,3.0,0,0.00,,,0.80,WUHU216PEETBRO,2013-08-13 02:09:00,
2013-08-12 21:14:00,79.9,0.0,0.00,West,262,2.3,3.5,0,0.00,,,0.80,WUHU216PEETBRO,2013-08-13 02:14:00,
2013-08-12 21:19:00,80.2,0.0,0.00,WSW,258,1.9,3.5,0,0.00,,,0.80,WUHU216PEETBRO,2013-08-13 02:19:00,
2013-08-12 21:24:00,79.9,0.0,0.00,West,279,1.6,3.4,0,0.00,,,0.80,WUHU216PEETBRO,2013-08-13 02:24:00,
2013-08-12 21:29:00,80.2,0.0,0.00,WSW,251,1.6,3.4,0,0.00,,,0.80,WUHU216PEETBRO,2013-08-13 02:29:00,
2013-08-12 21:34:00,79.2,0.0,0.00,WSW,254,1.9,3.0,0,0.00,,,0.80,WUHU216PEETBRO,2013-08-13 02:34:00,
2013-08-12 21:39:00,79.9,0.0,0.00,WNW,295,0.0,2.7,0,0.00,,,0.80,WUHU216PEETBRO,2013-08-13 02:39:00,
2013-08-12 21:44:00,79.9,0.0,0.00,West,262,1.2,2.5,0,0.00,,,0.80,WUHU216PEETBRO,2013-08-13 02:44:00,
2013-08-12 21:49:00,79.9,0.0,0.00,West,272,2.3,2.7,0,0.00,,,0.80,WUHU216PEETBRO,2013-08-13 02:49:00,
2013-08-12 21:54:00,79.9,0.0,0.00,WNW,285,1.4,3.7,0,0.00,,,0.80,WUHU216PEETBRO,2013-08-13 02:54:00,
2013-08-12 21:59:00,79.2,0.0,0.00,WSW,254,1.9,3.7,0,0.00,,,0.80,WUHU216PEETBRO,2013-08-13 02:59:00,
2013-08-12 22:04:00,78.9,0.0,0.00,WSW,254,1.2,3.0,0,0.00,,,0.80,WUHU216PEETBRO,2013-08-13 03:04:00,
2013-08-12 22:09:00,79.2,0.0,0.00,SW,234,0.0,3.0,0,0.00,,,0.80,WUHU216PEETBRO,2013-08-13 03:09:00,
2013-08-12 22:14:00,79.2,0.0,0.00,West,279,1.6,1.6,0,0.00,,,0.80,WUHU216PEETBRO,2013-08-13 03:14:00,
2013-08-12 22:19:00,79.4,0.0,0.00,West,262,0.6,2.4,0,0.00,,,0.80,WUHU216PEETBRO,2013-08-13 03:19:00,
2013-08-12 22:24:00,79.4,0.0,0.00,NW,304,0.0,2.9,0,0.00,,,0.80,WUHU216PEETBRO,2013-08-13 03:24:00,
2013-08-12 22:29:00,79.4,0.0,0.00,WSW,251,1.1,2.9,0,0.00,,,0.80,WUHU216PEETBRO,2013-08-13 03:29:00,
2013-08-12 22:34:00,79.2,0.0,0.00,West,266,1.0,3.8,0,0.00,,,0.80,WUHU216PEETBRO,2013-08-13 03:34:00,
2013-08-12 22:39:00,79.9,0.0,0.00,SSW,201,0.0,3.8,0,0.00,,,0.80,WUHU216PEETBRO,2013-08-13 03:39:00,
2013-08-12 22:44:00,78.9,0.0,0.00,SSW,201,0.0,1.9,0,0.00,,,0.80,WUHU216PEETBRO,2013-08-13 03:44:00,
2013-08-12 22:52:00,78.9,0.0,0.00,SW,235,0.0,3.7,0,0.00,,,0.80,WUHU216PEETBRO,2013-08-13 03:52:00,
2013-08-12 22:53:00,78.9,0.0,0.00,SW,235,0.0,3.7,0,0.00,,,0.80,WUHU216PEETBRO,2013-08-13 03:53:00,
2013-08-12 22:58:00,78.1,0.0,0.00,WSW,256,2.5,2.9,0,0.00,,,0.80,WUHU216PEETBRO,2013-08-13 03:58:00,
2013-08-12 23:01:00,78.4,0.0,0.00,WSW,248,0.0,2.9,0,0.00,,,0.80,WUHU216PEETBRO,2013-08-13 04:01:00,
2013-08-12 23:06:00,78.9,0.0,0.00,SSW,210,0.0,2.5,0,0.00,,,0.80,WUHU216PEETBRO,2013-08-13 04:06:00,
2013-08-12 23:11:00,78.4,0.0,0.00,SW,221,0.5,1.6,0,0.00,,,0.80,WUHU216PEETBRO,2013-08-13 04:11:00,
2013-08-12 23:16:00,78.4,0.0,0.00,SSW,200,1.2,1.8,0,0.00,,,0.80,WUHU216PEETBRO,2013-08-13 04:16:00,
2013-08-12 23:21:00,78.4,0.0,0.00,WSW,237,0.0,2.2,0,0.00,,,0.80,WUHU216PEETBRO,2013-08-13 04:21:00,
2013-08-12 23:26:00,77.9,0.0,0.00,WSW,237,0.0,2.2,0,0.00,,,0.80,WUHU216PEETBRO,2013-08-13 04:26:00,
2013-08-12 23:31:00,78.4,0.0,0.00,WSW,237,0.0,0.0,0,0.00,,,0.80,WUHU216PEETBRO,2013-08-13 04:31:00,
2013-08-12 23:36:00,78.4,0.0,0.00,WSW,237,0.0,0.0,0,0.00,,,0.80,WUHU216PEETBRO,2013-08-13 04:36:00,
2013-08-12 23:41:00,77.9,0.0,0.00,WSW,238,0.0,1.9,0,0.00,,,0.80,WUHU216PEETBRO,2013-08-13 04:41:00,
2013-08-12 23:46:00,77.1,0.0,0.00,SW,223,0.0,1.9,0,0.00,,,0.80,WUHU216PEETBRO,2013-08-13 04:46:00,
2013-08-12 23:51:00,77.9,0.0,0.00,SW,223,0.0,1.3,0,0.00,,,0.80,WUHU216PEETBRO,2013-08-13 04:51:00,
2013-08-12 23:56:00,78.1,0.0,0.00,SSW,203,0.0,1.9,0,0.00,,,0.80,WUHU216PEETBRO,2013-08-13 04:56:00,